Tracking 30970 objects as of 3-Jul-2025
HD Live streaming from Space Station
objects crossing your sky now

NEE 02 KRYSAOR

Track NEE 02 KRYSAOR now!
10-day predictions
NEE 02 KRYSAOR is classified as:


NORAD ID: 39441
Int'l Code: 2013-066AB
Perigee: 573.6 km
Apogee: 671.4 km
Inclination: 97.9 °
Period: 97.0 minutes
Semi major axis: 6993 km
RCS: Unknown
Launch date: November 21, 2013
Source: Ecuador (ECU)
Launch site: Orenburg, Russia (OREN)

Uplink (MHz):
Downlink (MHz): 980.000
Beacon (MHz):
Mode:
Call sign:
Status:

Your satellite tracking list
FENGYUN 3C
Track 1 satellite(s)




NASA's NSSDC Master Catalog

Two Line Element Set (TLE):
1 39441U 13066AB  25183.77388718  .00001435  00000-0  16987-3 0  9992
2 39441  97.8559 121.7900 0069924 133.4199 227.2865 14.84434392624327
Source of the keplerian elements: AFSPC